User: anonymous   Login
Location: Breitenfeld
(46.8500°N, 15.6333°E)
Time: 21:06:36
(UTC+00:00)
Language:

Cosmos 540 Rocket - Orbit

View from above orbital plane
View from above orbital plane
View from above satellite
View from above satellite

Ground track
Ground track

The orbit data is extracted from the following two-line orbital elements,

1  6324U 72104B   20184.80183941 -.00000036  00000-0 -27076-5 0  9996
2  6324  74.0746 205.7149 0008025  54.1771 306.0130 14.43491083495966
Epoch (UTC): 02 July 2020 19:14:38
Eccentricity: 0.0008025
inclination: 74.0746°
perigee height: 741 km
apogee height: 753 km
right ascension of ascending node: 205.7149°
argument of perigee: 54.1771°
revolutions per day: 14.43491083
mean anomaly at epoch: 306.0130°
orbit number at epoch: 49596

The dashed part of the orbit path shows where the satellite is in the earth's shadow,  

DLR